FO-29
1 24278U 96046B 22342.78982213 -.00000025 00000-0 98176-5 0 9995
2 24278 98.5137 342.4684 0350101 190.7404 168.6119 13.53125314299183
NOAA-15
1 25338U 98030A 22342.83182084 .00000166 00000-0 87221-4 0 9995
2 25338 98.6274 9.9504 0011012 144.8370 215.3539 14.26205136278126
GO-32
1 25397U 98043D 22342.57152267 .00000084 00000-0 56732-4 0 9997
2 25397 98.8424 293.6837 0001169 16.6871 343.4345 14.23792958268201
ISS
1 25544U 98067A 22342.93293553 .00009535 00000-0 17594-3 0 9993
2 25544 51.6441 190.9195 0004306 137.8703 357.8322 15.49819237372280
NO-44
1 26931U 01043C 22342.37547742 .00000168 00000-0 95567-4 0 9992
2 26931 67.0514 329.4554 0005241 271.4572 88.5929 14.30772619106286
SO-50
1 27607U 02058C 22342.68934489 .00001347 00000-0 20330-3 0 9997
2 27607 64.5536 128.5947 0080900 261.3851 97.8080 14.76458963 74097
CO-55
1 27844U 03031E 22342.44428491 .00000311 00000-0 15901-3 0 9995
2 27844 98.6793 347.5224 0009162 323.3270 36.7280 14.22553656 8614
CO-57
1 27848U 03031J 22342.74360856 .00000259 00000-0 13675-3 0 9999
2 27848 98.6834 348.2959 0009285 338.0383 22.0396 14.22096680 8436
RS-22
1 27939U 03042A 22342.54133339 .00000883 00000-0 16386-3 0 9999
2 27939 98.2144 123.5101 0013055 24.0205 336.1606 14.67650779 26577
NOAA-18
1 28654U 05018A 22342.78224307 .00000230 00000-0 14775-3 0 9997
2 28654 98.9326 52.9317 0014136 195.0795 164.9958 14.12818425904687
CO-58
1 28895U 05043F 22342.33389360 .00001201 00000-0 23435-3 0 9996
2 28895 98.1293 111.3147 0015584 316.7643 43.2336 14.64705573912866
Falconsat-3
1 30776U 07006E 22341.67624960 .00161417 00000-0 91429-3 0 9996
2 30776 35.4231 191.0213 0007904 326.5613 33.4626 15.77572357876684
CO-65
1 32785U 08021C 22342.64314933 .00003088 00000-0 32271-3 0 9999
2 32785 97.6814 308.2666 0013307 23.1120 337.0694 14.90334670792429
AAUSAT2
1 32788U 08021F 22342.42070430 .00007353 00000-0 60768-3 0 9990
2 32788 97.5496 321.9212 0008996 252.0226 108.0017 14.99200210794488
DO-64
1 32789U 08021G 22342.02675901 .00024451 00000-0 11780-2 0 9998
2 32789 97.3246 2.4363 0011200 79.8072 280.4425 15.18671416798220
CO-66
1 32791U 08021J 22342.34674381 .00005294 00000-0 50394-3 0 9996
2 32791 97.6337 313.3036 0011981 338.8900 21.1825 14.93771930793146
RS-30
1 32953U 08025A 22342.62313728 .00000024 00000-0 10000-3 0 9992
2 32953 82.5041 75.6217 0018833 237.9732 121.9514 12.43115865659973
PRISM
1 33493U 09002B 22342.71404035 .00006987 00000-0 54117-3 0 9991
2 33493 98.2495 339.6219 0015619 331.5972 28.4398 15.01692687755114
NOAA-19
1 33591U 09005A 22342.80354328 .00000189 00000-0 12665-3 0 9992
2 33591 99.1279 20.4391 0014662 60.6526 299.6107 14.12648084712803
SRMSAT
1 37841U 11058D 22342.56034404 .00000441 00000-0 97172-4 0 9996
2 37841 19.9723 282.4784 0012031 97.3608 58.6255 14.10800463575859
HRBE
1 37855U 11061F 22342.30858803 .00018346 00000-0 73380-3 0 9991
2 37855 101.7138 194.1923 0142791 260.1516 98.3555 15.16267153607549
RS-40
1 38735U 12041C 22342.49155868 .00000026 00000-0 11754-3 0 9992
2 38735 82.4738 157.0030 0017518 354.2596 5.8285 12.42589255470138
ZACUBE-1
1 39417U 13066B 22342.62089743 .00002243 00000-0 27423-3 0 9994
2 39417 97.6607 306.5448 0056308 191.9245 168.0640 14.83098341488932
Delfi-N3xt
1 39428U 13066N 22342.69600983 .00003410 00000-0 51801-3 0 9992
2 39428 97.8263 269.7252 0117040 80.3764 281.0643 14.70094832484128
GOMX-1
1 39430U 13066Q 22342.62099226 .00001409 00000-0 25717-3 0 9993
2 39430 97.7961 239.7831 0147135 215.1741 143.9688 14.60698835481715
LO-74
1 39440U 13066AA 22342.59681637 .00002991 00000-0 40498-3 0 9993
2 39440 97.7499 293.0948 0076320 287.0234 72.2625 14.77695546485999
AO-73
1 39444U 13066AE 22342.63771524 .00002749 00000-0 32500-3 0 9993
2 39444 97.6477 309.0005 0055288 178.7339 181.4026 14.84341696487354
SPROUT
1 39770U 14029E 22342.54927049 .00008765 00000-0 83528-3 0 9990
2 39770 97.9542 101.0157 0008068 226.7318 133.3296 14.93590582463624
DTUSAT-2
1 40030U 14033W 22342.60848263 .00003054 00000-0 31583-3 0 9993
2 40030 97.9513 276.2533 0010684 193.5250 166.5683 14.90825343459580
EO-80
1 40032U 14033Y 22342.58360350 .00003520 00000-0 36321-3 0 9991
2 40032 97.9519 276.2440 0010555 194.1576 165.9347 14.90808806460071
HODOYOSHI-1
1 40299U 14070B 22342.82977274 .00006781 00000-0 24388-3 0 9995
2 40299 97.2239 45.8204 0010279 233.5481 238.1438 15.28885874449682
FIREBIRD FU3
1 40377U 15003B 22342.47395506 .00031522 00000-0 76443-3 0 9992
2 40377 99.0792 246.8797 0085650 151.4066 209.1910 15.37204814435075
FIREBIRD FU4
1 40378U 15003C 22342.48801155 .00031776 00000-0 76825-3 0 9991
2 40378 99.0801 247.1541 0085488 150.8633 209.7416 15.37306208435088
GRIFEX
1 40379U 15003D 22342.26582627 .00018958 00000-0 59912-3 0 9993
2 40379 99.0871 230.5312 0104792 201.9307 157.7426 15.27606876434113
XW-2A
1 40903U 15049E 22342.88796069 .00046519 00000-0 49674-3 0 9999
2 40903 97.1548 42.4657 0007221 178.2848 299.6064 15.63766109406415
XW-2C
1 40906U 15049H 22342.86265343 .00006715 00000-0 30397-3 0 9992
2 40906 97.4955 345.1430 0014812 106.4701 14.8153 15.21125823399413
XW-2D
1 40907U 15049J 22342.85490159 .00007825 00000-0 34390-3 0 9997
2 40907 97.4940 345.2972 0014111 101.1769 342.3162 15.22092172399474
LILACSAT-2
1 40908U 15049K 22342.84766529 .00003475 00000-0 17911-3 0 9991
2 40908 97.5222 341.8915 0016081 127.5125 352.4636 15.16939266398917
XW-2E
1 40909U 15049L 22342.86044227 .00013171 00000-0 49419-3 0 9990
2 40909 97.4628 350.3147 0013256 79.4126 4.4257 15.27268843399996
XW-2F
1 40910U 15049M 22342.85664416 .00013046 00000-0 49761-3 0 9990
2 40910 97.4715 349.4914 0014092 80.6727 40.6379 15.26714768399758
XW-2B
1 40911U 15049N 22342.83538373 .00007627 00000-0 33667-3 0 9997
2 40911 97.4935 345.8157 0014106 103.4039 18.3163 15.21951932399358
DCBB
1 40912U 15049P 22342.87261870 .00015788 00000-0 53782-3 0 9994
2 40912 97.4314 353.8663 0013497 49.6360 70.8460 15.30389086400385
TW-1A
1 40928U 15051D 22342.85980598 .00352124 49423-4 10157-2 0 9999
2 40928 97.0082 6.4054 0006304 96.5783 20.7048 15.93010586405605
IO-86
1 40931U 15052B 22341.46611562 .00001032 00000-0 54075-4 0 9994
2 40931 5.9965 14.8235 0012932 96.2268 263.9400 14.76935061388966
AO-85
1 40967U 15058D 22341.22264497 .00001192 00000-0 14623-3 0 5520
2 40967 64.7745 265.9621 0172326 142.4124 218.9176 14.78204152 86193
ATHENOXAT-1
1 41168U 15077C 22342.39970538 .00027706 00000-0 98017-3 0 9997
2 41168 14.9913 236.3226 0007594 182.4853 323.7723 15.26939869386876
ChubuSat-2
1 41338U 16012B 22342.74837959 .00002851 00000-0 20507-3 0 9997
2 41338 31.0045 353.5681 0012825 83.7927 276.4169 15.02131155373708
ChubuSat-3
1 41339U 16012C 22342.73514065 .00002250 00000-0 16041-3 0 9998
2 41339 31.0114 350.5741 0012626 91.6435 268.5658 15.02145292373703
Horyu-4
1 41340U 16012D 22342.66900676 .00005300 00000-0 36187-3 0 9991
2 41340 31.0056 325.5858 0012618 138.2109 221.9493 15.04601902373974
e-st@r-II
1 41459U 16025D 22342.73037053 .00012804 00000-0 49752-3 0 9993
2 41459 98.1913 161.5006 0133487 36.5617 324.4654 15.18233751363892
AAUSAT4
1 41460U 16025E 22342.47738454 .00026486 00000-0 83247-3 0 9997
2 41460 98.1784 169.3350 0107279 6.6983 23.6275 15.27433481364421
